Regional Weather Roundup
Issued by NWS New Orleans/Baton Rouge, LA

Home | Current Version | Previous Version | Text Only | Print | Product List | Glossary On
Versions: 1 2 3 4 5 6 7 8 9 10 11 12 13 14 15 16 17 18 19 20 21 22 23 24 25 26 27 28 29 30 31 32 33 34 35 36 37 38 39 40 41 42 43 44 45 46 47 48 49 50
655
ASUS44 KLIX 200105
RWRLIX
NEW ORLEANS REGIONAL WEATHER ROUNDUP
NATIONAL WEATHER SERVICE NEW ORLEANS LA
700 PM CST FRI DEC 19 2014

NOTE: "FAIR" INDICATES FEW OR NO CLOUDS BELOW 12,000 FEET WITH NO
      SIGNIFICANT WEATHER AND/OR OBSTRUCTIONS TO VISIBILITY.
      SKY/WX - SKY CONDITION AND SIGNIFICANT WEATHER.
      TMP - AIR TEMPERATURE.     DP    - DEWPOINT TEMPERATURE.
      RH  - RELATIVE HUMIDITY.   PRES  - PRESSURE.
      HI  - HEAT INDEX.          WCI   - WIND CHILL INDEX.

*  THESE STATIONS ARE NOT NWS OR FAA STATIONS AND ARE NOT UNDER
   NWS QUALITY CONTROL.

LAZ038-040-048-061>063-065>067-069-200200-
SOUTHEAST LOUISIANA

CITY           SKY/WX    TMP DP  RH WIND       PRES   REMARKS
N.O. AUDUBON     N/A     54  50  86 MISG        N/A
N.O. INTL ARPT CLOUDY    52  49  89 NE14      30.08R
N.O. LAKEFRONT CLOUDY    53  49  86 E16       30.08R
N.O. DOWNTOWN* CLOUDY    52  46  82 NE9G17    30.07R
SLIDELL        LGT RAIN  49  46  90 NE7       30.08R
BATON ROUGE    LGT RAIN  48  45  89 NE10      30.09F
BOOTHVILLE     CLOUDY    57  56  96 NE10      30.05S
BELLE CHASSE   CLOUDY    52  50  93 NE14      30.05F
BOGALUSA*      RAIN      49  46  89 NE6       30.12F
GALLIANO*      CLOUDY    56  55  94 MISG      30.05R
NEW ROADS*     LGT RAIN  47  46  96 NE10      30.09F
GONZALES*      RAIN      47  47 100 N6        30.10R
HAMMOND*       NOT AVBL
HOUMA*         CLOUDY    53  52  97 NE10      30.06R FOG
PORT FOURCHON* CLOUDY    59  57  94 NE14G22   30.06R

$$

MSZ070-080>082-200200-
SOUTHERN MISSISSIPPI

CITY           SKY/WX    TMP DP  RH WIND       PRES   REMARKS
MCCOMB         LGT RAIN  46  43  89 NE7       30.11S
GULFPORT       LGT RAIN  48  46  93 NE10      30.09F
BILOXI         LGT RAIN  48  48 100 NE10      30.09F FOG
PASCAGOULA     LGT RAIN  48  46  93 NE10      30.11F
STENNIS ARPT*  CLOUDY    48  45  87 NE12G17   30.09S

$$

COASTAL OBSERVATIONS
LAKE AND NEARSHORE STATIONS

STATION/POSITION TIME  TEMP    WIND        PRES    WAVE
                       AIR SEA DIR/SP/G            HT/PER
                 (UTC) (F)     (DEG/KT/KT) (MB)    (FT/S)
PASCAGOULA       0100   50      40/ 10/ 14 1018.7
WAVELAND YACHT   0100   48      50/ 13/ 16 1018.0
GRAND ISLE       0100   58 62   60/ 14/ 18 1017.2
SOUTHWEST PASS   0100   58                 1016.8
NEW CANAL        0100   52 57   70/ 17/ 19 1018.3
SHELL BEACH      0100   53 58   60/ 18/ 23 1018.0

OFFSHORE STATIONS

STATION/POSITION TIME  TEMP    WIND        PRES    WAVE
                       AIR SEA DIR/SP/G            HT/PER
                 (UTC) (F)     (DEG/KT/KT) (MB)    (FT/S)
64 S DAUPHIN ISL 0100   64 74   90/ 19/ 23 1016.7    4/ 5

$$




USA.gov is the U.S. government's official web portal to all federal, state and local government web resources and services.